Regional Weather Roundup
Issued by NWS

Home | Current Version | Previous Version | Text Only | Print | Product List | Glossary On
Versions: 1 2 3 4 5 6 7 8 9 10 11 12 13 14 15 16 17 18 19 20 21 22 23 24 25 26 27 28
000
ASUS44 KJAN 220810
RWRMS

MISSISSIPPI HOURLY WEATHER ROUNDUP
NATIONAL WEATHER SERVICE JACKSON MS
300 AM CDT SUN OCT 22 2017

NOTE: "FAIR: INDICATES FEW OR NO CLOUDS BELOW 12,000 FEET WITH NO
SIGNIFICANT WEATHER AND/OR OBSTRUCTIONS TO VISIBILITY.

MSZ001>002-007>008-010>013-018>021-025>028-034>036-220900-
NORTHWEST MISSISSIPPI

CITY           SKY/WX    TMP DP  RH WIND       PRES   REMARKS
BATESVILLE     FAIR      72  64  76 S6        30.02R
CLARKSDALE       N/A     73  70  88 SE12G17   29.99S
CLEVELAND      FAIR      72  68  86 S13       29.97S
GREENWOOD      CLOUDY    74  65  73 SE15G23   29.99F
GREENVILLE     MOCLDY    73  64  73 SE10      29.97S
TUNICA           N/A    N/A N/A N/A SE9       30.00S
WINONA         FAIR      71  67  88 SE8G16    30.01F
$$

MSZ003>006-009-014>017-022>024-029>033-037>039-220900-
NORTHEAST MISSISSIPPI

CITY           SKY/WX    TMP DP  RH WIND       PRES   REMARKS
COLUMBUS AFB   CLOUDY    68  64  86 SE8       30.08F
CORINTH        PTSUNNY   68  61  77 SE10G16   30.07F
GOLDN TRIANGLE CLOUDY    68  64  87 SE9       30.09F
STARKVILLE     FAIR      68  63  83 SE9       30.08F
TUPELO         CLOUDY    69  61  75 SE12      30.07F
$$

MSZ040-058-220900-
CENTRAL MISSISSIPPI

CITY           SKY/WX    TMP DP  RH WIND       PRES   REMARKS
JACKSON INTL   LGT RAIN  74  69  85 S17       30.04S
JACKSON HAWKNS LGT RAIN  72  71  97 S18G24    30.03F
MADISON        PTSUNNY   70  68  94 S12G17    30.01F
MERIDIAN KEY   MOCLDY    68  66  93 CALM      30.08F
MERIDIAN NAS   CLOUDY    68  65  90 SE5       30.09F
RAYMOND        FAIR      73  70  88 SE20G35   29.97F
VICKSBURG VKS  MOSUNNY   73  68  83 S12       29.94S
$$

MSZ059>079-220900-
SOUTH MISSISSIPPI

CITY           SKY/WX    TMP DP  RH WIND       PRES   REMARKS
HATTIESBURG    FOG       66  66 100 CALM      30.07F VSB 1/2
LAUREL         FAIR      67  67 100 CALM      30.09S
MCCOMB         CLOUDY    73  70  90 E6        30.07S THUNDER
NATCHEZ        NOT AVBL
PINE BELT      CLOUDY    67  66  97 CALM      30.09F
$$

MSZ080>082-220900-
COASTAL MISSISSIPPI

CITY           SKY/WX    TMP DP  RH WIND       PRES   REMARKS
BILOXI         MOCLDY    77  70  79 SE14      30.03F
PASCAGOULA     CLEAR     70  66  87 E3        30.05F
GULFPORT       CLOUDY    77  72  84 SE13      30.03F
$$

LAZ007>009-015>016-023>026-220900-
NORTHEAST LOUISIANA

CITY           SKY/WX    TMP DP  RH WIND       PRES   REMARKS
BASTROP        PTSUNNY   72  71  98 S3        29.96F
TALLULAH/VBURG CLOUDY    74  69  85 S8        29.94F
VIDALIA          N/A    N/A N/A N/A MISG      29.96S
$$




USA.gov is the U.S. government's official web portal to all federal, state and local government web resources and services.